Wind_Speed
18 17 17 17 17 18 18 18 18 18 17 17 18 19 19 19 18 19 19 17 18 17 17 17 16 17 18 17 18 19 19 19 19 19 20 20 20 21 22 22 23 23 23
18 18 17 17 17 18 18 19 19 19 18 19 19 19 19 19 19 18 17 18 17 16 15 16 16 17 17 17 17 19 20 21 21 21 21 20 21 22 22 23 24 24 24
19 19 18 17 18 19 19 20 20 20 19 19 19 19 19 19 19 19 18 18 17 16 16 16 17 17 17 18 18 20 20 21 21 20 21 21 21 21 22 23 24 24 24
20 20 19 18 19 21 20 21 21 20 20 20 19 18 19 19 19 19 18 18 17 16 17 17 16 17 18 19 20 20 21 21 21 21 21 22 22 22 22 23 24 24 25
18 18 18 19 20 21 21 21 22 22 21 20 20 20 19 18 19 19 18 17 16 17 17 16 17 17 18 19 19 20 20 21 21 21 22 23 23 23 23 24 24 25 25
18 18 18 18 18 19 19 20 22 21 20 19 20 20 18 17 18 17 17 16 16 17 17 18 18 18 19 19 20 21 21 22 21 21 22 23 23 24 24 25 25 25 26
18 19 19 19 19 18 18 18 18 18 18 18 18 17 18 18 18 17 17 17 16 16 18 19 19 19 19 20 20 21 21 21 21 22 23 23 24 25 25 25 25 25 26
17 18 19 18 18 18 17 17 16 15 16 17 17 17 18 18 18 18 17 17 17 17 18 19 19 19 20 20 21 21 21 21 22 22 23 23 24 26 26 26 26 26 27
16 17 17 17 17 17 17 16 15 14 15 15 15 15 16 16 16 16 16 17 17 17 18 19 19 19 20 21 21 20 20 20 21 23 23 23 24 26 27 27 27 27 27
15 15 15 16 16 16 16 15 14 14 14 13 13 14 14 14 15 15 15 16 17 17 18 18 19 19 20 20 20 20 21 22 23 23 24 24 25 26 26 27 27 28 28
14 14 15 15 14 15 15 15 14 13 12 12 13 14 13 13 14 14 14 15 16 16 17 18 18 19 20 20 20 21 22 22 23 24 24 24 25 26 26 26 26 27 28
13 14 14 13 13 13 14 13 13 13 12 12 12 12 11 12 13 13 14 14 14 15 16 17 18 18 19 19 19 20 21 22 22 23 24 24 24 25 25 26 27 28 28
14 14 14 13 13 13 12 11 11 12 11 11 11 10 10 10 10 10 11 12 13 14 15 16 16 16 17 17 18 20 20 21 21 22 23 24 24 24 25 26 27 28 29
13 13 13 11 11 10 10 10 9 9 9 8 8 8 8 8 9 10 11 12 13 14 14 14 14 14 15 16 17 18 19 19 20 21 22 23 23 24 25 26 27 28 29
12 11 10 10 9 9 8 8 8 7 7 6 6 7 7 7 8 9 11 12 12 12 12 12 12 13 14 16 16 17 18 19 20 21 22 23 23 24 24 26 27 29 29
11 10 10 9 9 8 8 8 7 6 6 5 6 6 7 7 8 9 10 11 10 11 11 11 11 13 15 16 16 17 18 19 20 21 22 23 24 24 25 27 29 29 29
11 11 9 9 8 8 8 8 8 7 6 6 6 6 6 7 7 8 9 10 9 10 10 10 12 13 14 16 16 17 18 19 20 21 22 23 24 25 27 28 29 29 29
10 10 9 9 8 8 8 7 7 7 6 6 6 6 6 7 8 9 9 10 10 10 10 11 12 14 15 15 16 17 18 19 21 22 23 24 25 25 27 28 29 29 29
10 10 10 9 8 7 8 7 7 7 7 7 7 7 7 7 8 8 9 9 10 10 11 11 13 14 15 16 16 17 18 19 21 22 24 25 26 27 28 28 29 29 29
10 10 10 9 8 8 8 8 7 6 6 6 7 7 7 7 7 8 8 9 9 10 10 11 13 15 15 16 17 17 18 20 21 23 25 26 27 28 29 29 30 29 30
10 10 10 9 8 8 8 8 7 6 6 7 7 6 6 6 7 7 8 8 9 10 11 12 13 15 15 16 17 18 18 20 21 23 25 27 28 29 30 30 31 31 30
9 9 9 8 8 7 7 7 7 6 6 6 6 6 6 7 7 8 8 8 9 10 12 13 14 15 16 17 18 19 20 21 22 24 26 28 29 30 31 31 31 31 31
8 8 9 8 8 7 7 7 7 7 7 6 6 6 6 7 8 8 8 9 10 11 12 14 15 17 18 18 18 20 21 22 24 25 27 28 30 31 32 32 31 31 30
8 8 8 9 9 8 7 7 7 7 7 6 7 7 7 8 8 9 9 9 10 11 13 14 16 17 18 19 19 20 21 23 24 26 27 29 30 31 32 32 31 31 30
8 8 9 8 8 8 8 7 8 8 7 7 7 7 7 8 8 9 9 10 11 12 13 15 16 17 18 19 20 21 22 24 25 26 28 29 31 32 32 32 32 31 30
8 8 8 8 8 8 8 8 8 8 7 7 7 7 8 8 9 9 10 11 12 13 15 16 18 18 19 20 21 22 23 25 26 28 29 30 31 32 32 32 32 31 31
Wind_Direction
286 281 276 275 272 270 271 273 274 275 273 271 272 270 269 267 261 261 266 272 273 269 269 269 269 272 274 276 279 281 282 282 282 282 282 282 282 282 281 282 281 280 280
283 281 279 276 274 274 277 277 276 273 270 270 272 268 265 265 266 265 268 274 273 268 271 271 272 274 275 277 282 283 282 284 282 281 281 281 282 283 283 283 283 281 281
284 282 280 278 279 280 281 277 277 276 272 270 268 266 265 266 266 265 268 269 271 273 274 273 273 273 276 278 280 282 285 287 286 284 283 281 282 282 283 283 284 284 284
285 285 282 277 280 283 285 280 276 274 272 270 268 264 266 262 263 267 266 267 270 272 273 274 276 278 280 281 282 284 287 288 287 286 286 285 286 286 285 285 285 285 286
287 287 287 286 284 285 285 282 277 272 269 266 265 265 262 261 263 267 265 268 271 274 275 276 277 278 280 282 283 285 288 289 288 287 288 288 288 288 288 288 287 287 287
289 289 289 292 290 291 292 286 280 275 270 268 267 265 262 263 262 266 267 272 274 275 274 276 279 280 282 283 284 286 286 287 287 287 288 290 289 289 289 288 287 288 289
292 292 291 292 292 293 293 292 287 278 273 269 269 266 265 267 266 266 269 271 275 276 275 276 279 282 283 284 286 287 287 288 288 290 290 291 291 291 291 289 288 287 289
293 294 295 293 291 290 291 292 292 284 276 274 272 269 269 268 269 270 272 273 274 276 275 276 279 283 285 286 288 289 289 290 290 293 293 292 292 292 292 292 289 288 290
295 294 294 293 292 291 292 294 294 290 282 276 275 276 270 266 269 268 270 273 274 275 277 279 282 283 285 287 289 289 290 292 293 294 295 294 293 294 293 292 292 291 291
300 297 295 294 291 292 292 290 290 289 287 280 276 279 272 265 265 269 271 274 276 279 283 285 287 287 286 288 289 291 293 294 295 296 296 295 295 296 296 295 294 294 294
307 303 300 299 294 294 296 295 292 292 288 280 279 278 275 270 268 273 277 278 278 280 283 287 290 289 287 287 290 293 295 297 298 296 296 297 297 298 298 298 297 298 298
312 313 310 306 301 297 298 296 291 291 290 285 282 280 278 276 277 278 282 280 279 282 285 288 291 291 290 291 296 297 298 299 299 298 298 298 298 299 299 299 299 299 298
313 313 311 307 305 300 298 295 290 289 290 289 289 285 279 279 283 284 287 286 286 287 292 295 296 295 294 296 301 301 302 301 302 303 302 302 300 300 301 302 303 302 301
317 316 316 314 311 305 303 302 297 298 296 291 287 285 286 288 291 292 294 292 292 294 297 300 302 302 303 304 306 307 307 306 305 306 305 306 305 304 304 305 305 305 305
329 330 328 325 320 315 312 311 308 309 306 296 295 293 297 294 295 296 297 299 295 294 298 304 307 309 311 311 310 312 312 312 310 310 310 311 310 310 309 308 307 307 307
337 339 338 334 328 322 324 325 322 320 319 313 303 300 305 301 298 301 306 307 302 301 304 305 308 312 314 315 315 315 315 314 314 315 316 315 313 313 313 311 311 310 310
341 344 341 336 337 331 329 331 328 325 328 327 318 307 306 307 308 309 312 313 311 311 311 312 314 314 315 317 317 317 318 319 319 319 320 320 319 317 315 314 314 314 314
347 346 343 341 342 341 337 335 334 331 326 324 325 317 309 310 310 309 311 315 318 320 319 319 320 321 322 321 320 320 322 322 322 322 323 324 322 321 319 317 316 317 316
351 350 348 348 353 355 351 343 335 333 333 330 326 324 323 318 312 313 316 320 321 323 322 323 325 325 326 325 324 324 325 324 324 326 328 328 326 324 323 321 321 320 318
353 353 354 357 359 2 358 351 343 335 332 330 329 330 329 326 322 322 325 327 326 328 330 330 331 330 330 330 329 328 329 328 328 329 330 331 330 329 328 326 325 323 322
352 356 360 1 2 3 359 357 350 345 339 334 332 332 333 334 336 335 333 334 336 336 335 334 333 332 334 334 333 332 331 331 331 331 331 331 331 331 330 328 327 325 323
354 359 4 6 7 7 5 3 0 358 353 349 345 341 345 341 336 339 339 338 339 340 338 337 336 335 334 334 333 333 332 333 334 334 333 332 333 333 332 331 329 328 326
357 359 5 9 6 5 10 11 7 3 358 355 355 350 347 346 344 344 343 341 340 339 340 339 338 336 335 335 335 335 336 336 335 334 333 334 334 333 333 333 332 330 329
358 360 1 1 3 3 2 2 2 2 0 358 355 353 353 353 351 349 349 346 342 341 340 337 337 338 338 338 338 338 339 339 338 337 336 337 336 336 336 336 334 333 332
346 347 349 351 355 1 5 5 0 359 1 359 354 354 355 353 350 343 342 343 343 342 341 341 339 337 338 339 339 339 340 341 341 340 339 339 338 337 337 337 337 336 334
337 337 337 342 346 348 350 351 350 350 352 354 354 354 351 349 347 343 339 337 337 339 339 338 338 339 340 340 341 341 341 342 341 341 341 340 339 339 339 340 340 339 338
Height
5820 5818 5818 5817 5816 5816 5815 5814 5814 5813 5813 5813 5813 5813 5812 5812 5812 5812 5811 5811 5811 5810 5810 5811 5811 5811 5811 5810 5810 5809 5809 5808 5807 5806 5805 5804 5803 5802 5801 5800 5799 5797 5796
5817 5815 5814 5813 5812 5811 5810 5810 5809 5808 5808 5808 5807 5807 5807 5807 5807 5808 5808 5807 5806 5806 5806 5806 5806 5806 5806 5806 5806 5805 5804 5803 5802 5801 5800 5799 5798 5797 5795 5794 5792 5791 5790
5813 5811 5810 5809 5808 5807 5806 5806 5805 5804 5803 5803 5802 5802 5802 5802 5803 5803 5803 5803 5803 5802 5802 5802 5802 5802 5802 5802 5801 5800 5799 5798 5796 5795 5795 5794 5793 5792 5791 5788 5787 5785 5783
5808 5807 5806 5805 5804 5803 5801 5801 5800 5799 5799 5798 5798 5798 5797 5797 5798 5798 5799 5799 5799 5798 5798 5798 5797 5797 5797 5797 5796 5795 5793 5792 5791 5790 5789 5788 5787 5786 5785 5783 5781 5779 5777
5805 5803 5802 5800 5799 5798 5797 5796 5794 5793 5793 5793 5793 5793 5793 5792 5793 5793 5794 5794 5794 5794 5794 5794 5793 5793 5792 5791 5790 5789 5788 5787 5785 5784 5783 5782 5781 5779 5778 5777 5775 5773 5771
5801 5799 5798 5796 5794 5793 5791 5790 5789 5788 5788 5787 5787 5787 5787 5787 5788 5788 5789 5789 5789 5789 5790 5790 5789 5788 5787 5786 5785 5784 5783 5781 5780 5779 5777 5776 5775 5773 5771 5770 5768 5766 5764
5797 5795 5793 5792 5790 5789 5787 5786 5784 5783 5783 5783 5783 5783 5782 5782 5783 5783 5784 5784 5785 5785 5785 5785 5784 5783 5782 5781 5780 5779 5777 5776 5775 5773 5771 5770 5768 5766 5764 5763 5761 5759 5757
5793 5791 5789 5788 5786 5784 5783 5782 5780 5779 5778 5778 5778 5778 5778 5778 5778 5779 5779 5780 5780 5780 5780 5780 5780 5778 5777 5776 5775 5774 5772 5771 5769 5767 5765 5764 5762 5760 5758 5755 5753 5752 5750
5789 5787 5786 5784 5782 5781 5779 5778 5776 5775 5774 5773 5774 5774 5774 5774 5774 5774 5775 5776 5776 5776 5776 5775 5775 5773 5772 5771 5770 5769 5767 5765 5764 5761 5759 5757 5755 5753 5750 5748 5746 5744 5742
5786 5784 5782 5780 5778 5777 5775 5774 5773 5772 5771 5770 5770 5770 5770 5770 5770 5770 5771 5771 5772 5772 5771 5771 5769 5768 5767 5766 5765 5763 5762 5760 5758 5755 5753 5751 5748 5746 5743 5740 5737 5735 5733
5782 5780 5778 5777 5775 5773 5772 5770 5769 5768 5767 5766 5766 5766 5766 5767 5767 5767 5767 5767 5767 5767 5766 5765 5764 5763 5763 5761 5759 5758 5756 5754 5751 5749 5747 5744 5742 5739 5736 5733 5730 5727 5724
5779 5777 5775 5773 5771 5770 5768 5767 5766 5765 5764 5763 5763 5763 5763 5763 5764 5763 5763 5763 5763 5762 5762 5761 5760 5759 5757 5756 5754 5752 5750 5748 5745 5743 5741 5738 5735 5732 5729 5726 5722 5719 5716
5777 5774 5772 5770 5768 5767 5766 5764 5763 5763 5761 5761 5760 5760 5760 5760 5760 5760 5760 5760 5759 5759 5758 5756 5755 5754 5752 5751 5749 5747 5745 5742 5739 5737 5734 5731 5728 5726 5723 5719 5715 5712 5708
5774 5772 5770 5768 5766 5765 5763 5762 5761 5760 5759 5758 5758 5758 5758 5758 5758 5758 5757 5757 5756 5755 5754 5753 5751 5750 5748 5746 5744 5742 5740 5737 5734 5731 5729 5725 5722 5719 5716 5713 5709 5705 5701
5773 5770 5768 5766 5764 5763 5762 5760 5759 5758 5757 5757 5756 5756 5756 5756 5756 5755 5755 5754 5753 5752 5750 5749 5748 5747 5745 5743 5740 5738 5735 5732 5730 5727 5724 5720 5717 5713 5710 5706 5702 5698 5694
5771 5769 5767 5765 5763 5762 5761 5759 5758 5757 5756 5755 5755 5754 5754 5754 5753 5753 5752 5751 5750 5749 5748 5747 5745 5744 5742 5740 5737 5735 5732 5729 5726 5723 5719 5715 5711 5708 5704 5700 5696 5691 5686
5771 5768 5766 5764 5763 5761 5759 5758 5757 5756 5755 5754 5754 5753 5753 5753 5752 5751 5750 5749 5748 5747 5746 5744 5743 5741 5739 5737 5734 5732 5729 5726 5723 5719 5715 5711 5707 5703 5699 5694 5689 5684 5679
5770 5768 5766 5764 5762 5760 5759 5757 5756 5756 5755 5754 5753 5752 5752 5751 5751 5750 5749 5748 5746 5745 5744 5742 5741 5739 5736 5734 5731 5728 5725 5722 5719 5715 5711 5707 5703 5698 5693 5688 5683 5677 5672
5770 5768 5765 5763 5762 5760 5759 5757 5756 5755 5754 5753 5752 5751 5751 5750 5749 5749 5748 5746 5745 5743 5742 5741 5739 5736 5734 5731 5728 5725 5722 5719 5715 5711 5707 5703 5698 5693 5688 5682 5677 5671 5665
5769 5767 5765 5763 5762 5760 5759 5758 5756 5755 5754 5753 5752 5751 5750 5749 5748 5747 5746 5745 5744 5742 5741 5739 5737 5734 5731 5728 5725 5722 5719 5716 5712 5708 5703 5698 5693 5688 5682 5676 5670 5664 5659
5769 5767 5765 5764 5762 5761 5759 5758 5757 5755 5754 5753 5752 5751 5750 5749 5748 5746 5745 5744 5743 5741 5739 5737 5735 5732 5729 5726 5723 5720 5716 5713 5709 5704 5699 5694 5689 5683 5677 5670 5664 5658 5652
5770 5768 5766 5764 5763 5761 5760 5758 5757 5756 5755 5754 5753 5751 5750 5749 5748 5746 5745 5743 5742 5740 5738 5735 5733 5730 5727 5724 5720 5717 5713 5709 5705 5700 5695 5690 5684 5677 5671 5665 5658 5652 5645
5770 5768 5767 5765 5764 5762 5761 5759 5758 5756 5755 5754 5753 5752 5750 5749 5747 5746 5744 5743 5741 5739 5737 5734 5731 5728 5725 5721 5718 5714 5710 5706 5701 5696 5691 5685 5679 5673 5666 5659 5652 5646 5639
5770 5769 5767 5765 5764 5762 5761 5760 5758 5757 5756 5754 5753 5752 5750 5749 5747 5745 5744 5742 5741 5738 5736 5733 5730 5726 5723 5719 5715 5711 5707 5703 5697 5692 5687 5681 5675 5668 5661 5654 5647 5640 5634
5770 5768 5767 5765 5764 5763 5761 5760 5759 5757 5756 5755 5753 5752 5750 5748 5747 5745 5743 5742 5740 5737 5735 5732 5728 5725 5721 5717 5713 5709 5704 5700 5694 5689 5683 5677 5671 5664 5657 5650 5643 5636 5629
5769 5768 5767 5765 5764 5763 5761 5760 5758 5757 5756 5755 5753 5751 5749 5748 5746 5744 5743 5741 5739 5736 5733 5730 5727 5723 5719 5715 5710 5706 5701 5696 5691 5685 5679 5673 5667 5660 5653 5646 5639 5632 5625